DW7787 Weather Reports


time (UTC)temp
F
wind
direction
speed
knots
gust
knots
rain 1hr
in
rain 24hr
in
rain mn
in
humidity
%
barometer
mb
20260508125817 52 79 0.9 1.7 0.00 0.94 0.00 93 1018.9
20260508125308 51 76 0.9 1.7 0.00 0.94 0.00 94 1018.9
20260508124811 51 78 0.0 1.7 0.00 0.94 0.00 95 1018.8
20260508124313 50 61 0.0 1.7 0.00 0.94 0.00 95 1018.7
20260508123808 50 61 0.0 1.7 0.00 0.95 0.00 96 1018.6
20260508123308 49 338 0.0 0.9 0.00 0.95 0.00 96 1018.7
20260508122803 49 316 0.0 0.9 0.00 0.96 0.00 95 1018.6
20260508122306 49 316 0.0 0.9 0.00 0.97 0.00 95 1018.6
20260508121801 49 316 0.0 1.7 0.00 0.99 0.00 95 1018.6
20260508121302 48 316 0.0 1.7 0.00 1.00 0.00 95 1018.6
20260508120800 48 312 0.0 0.9 0.00 1.04 0.00 95 1018.4
20260508120305 48 312 0.0 0.9 0.00 1.06 0.00 95 1018.4
20260508120144 48 312 0.0 1.7 0.00 1.06 0.00 95 1018.3
20260508115305 48 312 0.0 1.7 0.00 1.06 0.00 95 1018.2
20260508114801 47 241 0.0 0.9 0.00 1.06 0.00 95 1018.1
20260508114304 47 242 0.0 0.9 0.00 1.06 0.00 95 1018.0
20260508113755 47 273 0.0 0.0 0.00 1.07 0.00 95 1017.9
20260508113249 47 273 0.0 0.0 0.00 1.07 0.00 95 1017.9
20260508112746 47 273 0.0 0.0 0.00 1.08 0.00 95 1017.7
20260508112241 47 273 0.0 0.0 0.00 1.09 0.00 94 1017.8
20260508111733 47 273 0.0 0.0 0.00 1.11 0.00 94 1017.7
20260508111225 47 273 0.0 0.0 0.00 1.12 0.00 94 1017.6
20260508110722 47 273 0.0 0.0 0.00 1.13 0.00 94 1017.5
20260508110223 47 273 0.0 0.9 0.00 1.13 0.00 94 1017.5
20260508110041 47 273 0.0 0.9 0.00 1.13 0.00 94 1017.4
20260508105220 47 273 0.0 0.0 0.00 1.13 0.00 94 1017.4
20260508104717 47 273 0.0 0.0 0.00 1.13 0.00 94 1017.2
20260508104215 47 273 0.0 0.0 0.00 1.14 0.00 94 1017.1
20260508103714 47 273 0.0 0.0 0.00 1.14 0.00 94 1017.0
20260508103515 48 273 0.0 0.0 0.00 1.14 0.00 94 1016.8
20260508102716 48 273 0.0 1.7 0.00 1.14 0.00 94 1016.8
20260508102211 48 273 0.0 1.7 0.00 1.14 0.00 94 1016.7
20260508101711 48 275 0.0 0.9 0.00 1.14 0.00 94 1016.6
20260508101209 48 275 0.0 0.9 0.00 1.14 0.00 94 1016.5
20260508101019 48 275 0.0 0.9 0.00 1.14 0.00 94 1016.5
20260508100208 48 275 0.0 0.9 0.00 1.14 0.00 94 1016.6
20260508095710 48 275 0.0 0.0 0.00 1.14 0.00 94 1016.6
20260508095206 49 275 0.0 0.0 0.00 1.14 0.00 94 1016.5
20260508094706 49 275 0.0 0.0 0.00 1.14 0.00 94 1016.4
20260508094207 49 275 0.0 0.0 0.00 1.14 0.00 94 1016.5
20260508093704 49 275 0.0 0.0 0.00 1.14 0.00 94 1016.5
20260508093205 49 275 0.0 0.0 0.00 1.14 0.00 94 1016.4
20260508092701 49 275 0.0 0.0 0.00 1.14 0.00 94 1016.2
20260508092156 49 275 0.0 0.0 0.00 1.14 0.00 94 1016.3
20260508091655 49 275 0.0 0.0 0.00 1.14 0.00 94 1016.2
20260508091455 49 275 0.0 0.9 0.00 1.14 0.00 94 1016.2
20260508090654 50 275 0.0 0.9 0.00 1.14 0.00 94 1016.1
20260508090151 50 275 0.0 0.9 0.00 1.14 0.00 94 1016.2
20260508085647 50 275 0.0 0.9 0.00 1.15 0.00 94 1016.1
20260508085146 50 275 0.0 0.9 0.00 1.15 0.00 94 1016.1
20260508084648 50 275 0.0 0.0 0.00 1.15 0.00 94 1016.0
20260508084145 50 275 0.0 0.9 0.00 1.15 0.00 94 1016.1
20260508083644 50 275 0.0 0.9 0.00 1.15 0.00 94 1016.1
20260508083141 50 275 0.0 0.0 0.00 1.15 0.00 94 1016.0
20260508082638 51 275 0.0 0.0 0.00 1.15 0.00 94 1015.9
20260508082136 51 275 0.0 0.0 0.00 1.15 0.00 94 1016.0
20260508082006 51 275 0.0 0.9 0.00 1.15 0.00 94 1016.0
20260508081133 51 275 0.0 0.9 0.00 1.15 0.00 94 1016.0
20260508080630 51 275 0.0 0.0 0.00 1.16 0.00 94 1015.8
20260508080130 51 275 0.0 0.0 0.00 1.16 0.00 94 1015.8
20260508075630 51 275 0.0 0.0 0.00 1.16 0.00 94 1015.7
20260508075310 51 275 0.0 0.0 0.00 1.16 0.00 94 1015.7
20260508075238 51 275 0.0 0.0 0.00 1.16 0.00 94 1015.7
20260508074131 51 275 0.0 0.0 0.00 1.17 0.00 94 1015.7
20260508073631 51 275 0.0 0.0 0.00 1.18 0.00 94 1015.6
20260508073125 52 275 0.0 0.9 0.00 1.19 0.00 94 1015.6
20260508072620 52 275 0.0 0.9 0.00 1.20 0.00 94 1015.7
20260508072115 52 275 0.0 0.9 0.00 1.21 0.00 94 1015.6
20260508071610 52 275 0.0 0.0 0.00 1.22 0.00 94 1015.4
20260508071106 52 275 0.0 0.0 0.00 1.24 0.00 94 1015.5
20260508070604 52 275 0.0 0.0 0.00 1.26 0.00 94 1015.5
20260508065612 52 275 0.0 0.0 0.00 1.29 0.00 94 1015.5
20260508065602 52 275 0.0 0.0 0.00 1.30 0.00 94 1015.4
20260508065558 52 275 0.0 0.0 0.00 1.30 0.00 94 1015.4
20260508064104 52 275 0.0 0.0 0.00 1.30 0.00 94 1015.4
20260508063924 53 275 0.0 0.0 0.00 1.30 0.00 94 1015.2
20260508063104 53 275 0.0 0.0 0.00 1.31 0.00 94 1015.3
20260508062906 53 275 0.0 0.0 0.00 1.31 0.00 94 1015.4
20260508062058 53 275 0.0 0.0 0.00 1.31 0.00 94 1015.4
20260508061558 53 275 0.0 0.0 0.00 1.32 0.00 94 1015.5
20260508061102 53 275 0.0 0.0 0.00 1.32 0.00 94 1015.4
20260508060602 53 275 0.0 0.0 0.00 1.33 0.00 94 1015.4
20260508060058 53 275 0.0 0.0 0.00 1.34 0.00 94 1015.5
20260508055900 53 275 0.0 0.0 0.00 1.36 0.00 94 1015.5
20260508055057 53 275 0.0 0.0 0.00 1.37 0.00 94 1015.5
20260508054913 53 275 0.0 0.0 0.00 1.42 0.00 94 1015.5
20260508054055 53 275 0.0 0.0 0.00 1.43 0.00 94 1015.4
20260508053555 53 275 0.0 0.0 0.00 1.45 0.00 94 1015.4
20260508053052 53 275 0.0 0.9 0.00 1.47 0.00 94 1015.4
20260508052553 54 275 0.0 0.9 0.00 1.49 0.00 94 1015.4
20260508052402 54 275 0.0 0.0 0.00 1.53 0.00 94 1015.4
20260508051901 54 275 0.0 0.0 0.00 1.60 0.00 94 1015.4
20260508051403 54 275 0.0 0.0 0.00 1.64 0.00 94 1015.4
20260508050553 54 275 0.0 0.0 0.00 1.65 0.00 94 1015.3
20260508050048 54 275 0.0 0.0 0.00 1.65 0.00 94 1015.2
20260508045549 54 275 0.0 0.0 0.00 1.65 0.00 94 1015.4
20260508045045 54 275 0.0 0.0 0.00 1.65 0.00 94 1015.2
20260508044547 54 275 0.0 0.0 0.00 1.65 0.00 94 1015.2
20260508044044 55 275 0.0 0.0 0.00 1.65 0.00 94 1015.1
20260508043543 55 275 0.0 0.0 0.00 1.65 0.00 94 1015.0
20260508043405 55 275 0.0 0.9 0.00 1.65 0.00 94 1015.0
20260508042548 55 275 0.0 0.9 0.00 1.65 0.00 94 1015.1
20260508042045 55 275 0.0 0.0 0.00 1.65 0.00 94 1014.9
20260508041548 55 275 0.0 0.0 0.00 1.65 0.00 94 1015.1
20260508041047 55 275 0.0 0.0 0.00 1.65 0.00 94 1015.0
20260508040540 55 275 0.0 0.0 0.00 1.65 0.00 94 1015.0
20260508040041 56 275 0.0 0.0 0.00 1.65 0.00 94 1014.9
20260508035541 56 275 0.0 0.9 0.00 1.65 1.65 94 1015.0
20260508035414 56 275 0.0 0.9 0.00 1.65 1.65 94 1014.9
20260508034908 56 275 0.0 0.0 0.00 1.65 1.65 94 1014.8
20260508034036 56 275 0.0 0.0 0.00 1.65 1.65 94 1014.8
20260508033537 56 275 0.0 0.0 0.00 1.65 1.65 94 1014.9
20260508033036 56 275 0.0 0.0 0.00 1.66 1.65 94 1014.8
20260508032533 56 275 0.0 0.0 0.00 1.67 1.65 94 1015.0
20260508032030 56 275 0.0 0.9 0.00 1.68 1.65 94 1015.0
20260508031530 56 275 0.0 0.9 0.00 1.70 1.65 95 1015.0
20260508031030 56 275 0.0 0.9 0.00 1.73 1.65 94 1015.0
20260508030530 56 275 0.0 0.0 0.00 1.76 1.65 94 1014.8
20260508030029 56 275 0.0 0.9 0.00 1.77 1.65 94 1014.7
20260508025530 56 275 0.0 0.9 0.00 1.77 1.65 94 1014.6
20260508025034 56 275 0.0 0.9 0.00 1.81 1.65 94 1014.7
20260508024533 57 277 0.0 0.0 0.00 1.85 1.65 94 1014.3
20260508024029 57 277 0.0 0.0 0.00 1.89 1.65 94 1014.4
20260508023529 57 277 0.0 0.0 0.00 1.93 1.65 94 1014.5
20260508023018 57 277 0.0 0.9 0.00 1.95 1.65 94 1014.4
20260508022512 57 277 0.0 0.9 0.00 1.95 1.65 94 1014.4
20260508022011 57 238 0.0 0.9 0.00 1.95 1.65 94 1014.3
20260508021842 57 238 0.0 1.7 0.00 1.96 1.65 94 1014.2
20260508021007 57 269 0.0 1.7 0.00 1.97 1.65 94 1014.0
20260508020508 57 314 0.0 0.9 0.00 1.98 1.65 94 1013.9
20260508020010 57 323 0.0 0.9 0.00 1.98 1.65 94 1013.8
20260508015508 57 323 0.0 0.9 0.00 1.99 1.65 94 1013.9
20260508015005 57 329 0.0 0.9 0.00 2.01 1.65 94 1013.8
20260508014504 57 329 0.0 0.9 0.00 2.03 1.65 94 1013.7
20260508014004 57 329 0.0 1.7 0.00 2.05 1.65 94 1013.5
20260508013839 57 329 0.0 1.7 0.00 2.07 1.65 94 1013.4
20260508013002 57 323 0.0 1.7 0.00 2.10 1.65 94 1013.5
20260508012843 57 322 0.0 0.9 0.00 2.13 1.65 94 1013.6
20260508012001 57 325 0.0 0.9 0.00 2.15 1.65 94 1013.6
20260508011503 57 325 0.0 0.9 0.00 2.16 1.65 94 1013.4
20260508011004 57 325 0.0 0.9 0.00 2.16 1.65 94 1013.1
20260508010842 57 325 0.0 0.9 0.00 2.16 1.65 94 1012.9
20260508005956 57 325 0.0 0.9 0.00 2.18 1.65 94 1012.8
20260508005758 57 325 0.0 0.9 0.00 2.20 1.65 94 1012.6
20260508004954 58 324 0.0 0.9 0.00 2.24 1.65 94 1012.7
20260508004453 58 324 0.0 1.7 0.00 2.26 1.65 94 1012.5
20260508003952 58 324 0.0 1.7 0.00 2.27 1.65 94 1012.3
20260508003453 58 321 0.0 0.9 0.00 2.27 1.65 94 1012.4
20260508002953 58 318 0.0 0.9 0.00 2.28 1.65 94 1012.3
20260508002451 58 318 0.0 0.9 0.00 2.29 1.65 93 1012.1
20260508001950 58 316 0.0 1.7 0.00 2.29 1.65 94 1012.0
20260508001839 58 316 0.9 1.7 0.00 2.29 1.65 94 1011.9
20260508000949 58 61 0.9 1.7 0.00 2.29 1.65 94 1011.8
20260508000446 58 156 0.0 1.7 0.00 2.29 1.65 94 1011.9
20260508000257 58 156 0.9 1.7 0.00 2.29 1.65 93 1011.8
20260507235444 58 176 0.9 2.6 0.00 2.29 1.65 93 1011.5
20260507235250 58 32 0.9 3.5 0.00 2.30 1.65 93 1011.3
20260507234444 58 22 0.9 3.5 0.00 2.30 1.65 93 1011.4
20260507233949 58 250 0.9 5.2 0.00 2.30 1.65 93 1011.5
20260507233446 58 50 0.9 5.2 0.03 2.30 1.65 93 1011.3
20260507232943 58 41 0.9 2.6 0.04 2.30 1.65 93 1011.4
20260507232447 58 25 0.9 2.6 0.07 2.30 1.65 93 1011.3
20260507231940 58 42 0.9 2.6 0.08 2.30 1.65 93 1011.4
20260507231439 58 55 0.9 2.6 0.10 2.30 1.65 93 1011.1
20260507230944 59 92 0.9 2.6 0.14 2.30 1.65 93 1011.1
20260507230439 59 114 0.9 2.6 0.18 2.30 1.65 93 1010.7
20260507225939 59 62 0.9 2.6 0.26 2.04 1.65 93 1010.4
20260507225440 59 38 0.9 2.6 0.30 2.04 1.65 93 1010.5
20260507224941 59 51 1.7 3.5 0.37 2.04 1.65 92 1010.7
20260507224439 59 11 1.7 5.2 0.40 2.04 1.65 92 1010.7
20260507223942 59 309 1.7 5.2 0.41 2.04 1.65 92 1010.7
20260507223438 59 48 0.9 3.5 0.39 2.04 1.61 92 1010.7
20260507222934 59 90 0.9 2.6 0.39 2.04 1.61 92 1010.6
20260507222433 60 114 1.7 2.6 0.41 2.04 1.58 92 1010.6
20260507221938 60 138 0.9 2.6 0.45 2.04 1.56 91 1010.3
20260507221433 60 43 0.9 3.5 0.46 2.04 1.53 91 1010.0
20260507220933 60 30 1.7 3.5 0.53 2.04 1.50 91 1010.1
20260507220809 60 71 1.7 6.1 0.67 2.04 1.46 91 1010.1
20260507215932 61 32 1.7 6.1 0.60 1.44 1.38 90 1010.6
20260507215741 61 341 1.7 4.3 0.57 1.44 1.34 90 1010.1
20260507214932 61 87 1.7 5.2 0.50 1.44 1.26 89 1009.1
20260507214752 62 51 1.7 5.2 0.47 1.44 1.25 88 1009.4
20260507213930 62 31 1.7 3.5 0.46 1.44 1.24 88 1009.1
20260507213754 63 27 1.7 2.6 0.45 1.44 1.23 87 1008.9
20260507212929 64 90 1.7 3.5 0.44 1.44 1.22 86 1008.8
20260507212432 65 250 1.7 4.3 0.39 1.44 1.16 84 1008.8
20260507212255 66 202 1.7 5.2 0.34 1.44 1.11 82 1008.5
20260507211431 68 44 1.7 5.2 0.30 1.44 1.08 78 1008.4
20260507210925 69 42 2.6 7.8 0.18 1.44 0.93 75 1008.5
20260507210423 71 44 2.6 7.8 0.02 1.44 0.80 71 1008.8
20260507205921 74 69 2.6 13.0 0.01 1.43 0.78 66 1008.4
20260507205422 77 40 1.7 13.0 0.00 1.43 0.78 62 1008.1
20260507204922 78 280 0.9 3.5 0.00 1.43 0.78 62 1008.2
20260507204421 78 140 0.9 3.5 0.00 1.43 0.78 62 1007.9
20260507203917 78 164 0.9 3.5 0.00 1.43 0.78 62 1008.1
20260507203414 79 123 1.7 3.5 0.00 1.43 0.78 59 1007.8
20260507202913 79 257 1.7 4.3 0.00 1.43 0.78 60 1008.1
20260507202411 78 85 1.7 4.3 0.00 1.43 0.78 62 1008.1
20260507201913 77 240 1.7 3.5 0.00 1.43 0.78 64 1008.1
20260507201744 78 282 0.9 3.5 0.00 1.43 0.78 62 1008.0
20260507200907 78 202 0.9 2.6 0.00 1.43 0.78 64 1008.1
20260507200416 78 58 0.9 2.6 0.00 1.43 0.78 65 1008.1
20260507195910 77 318 0.9 3.5 0.00 1.43 0.78 64 1008.3
20260507195412 76 158 1.7 3.5 0.00 1.43 0.78 66 1008.2
20260507194909 77 138 1.7 4.3 0.00 1.43 0.78 68 1008.4
20260507194719 77 211 1.7 4.3 0.00 1.43 0.78 64 1008.4
20260507193903 77 201 1.7 6.1 0.00 1.43 0.78 64 1008.4
20260507193614 77 288 1.7 7.0 0.00 1.43 0.78 64 1008.7
20260507193518 77 314 1.7 7.8 0.00 1.43 0.78 64 1008.6
20260507192404 77 34 1.7 7.0 0.00 1.43 0.78 64 1008.5
20260507191851 77 212 1.7 5.2 0.00 1.43 0.78 66 1008.8
20260507191347 76 169 1.7 5.2 0.00 1.43 0.78 67 1008.7
20260507190839 76 227 1.7 5.2 0.00 1.43 0.78 68 1008.7
20260507190334 76 209 0.9 5.2 0.00 1.43 0.78 67 1008.8
20260507185830 76 325 0.9 6.1 0.00 1.43 0.78 69 1008.9
20260507185338 75 56 1.7 6.1 0.00 1.43 0.78 72 1009.0
20260507184835 75 208 1.7 3.5 0.00 1.43 0.78 71 1008.9
20260507184333 75 121 1.7 3.5 0.00 1.43 0.78 75 1008.9
20260507183829 74 156 1.7 3.5 0.00 1.43 0.78 74 1008.9
20260507183331 73 298 0.9 2.6 0.00 1.43 0.78 76 1008.9
20260507182836 74 145 0.9 4.3 0.00 1.43 0.78 74 1008.9
20260507182335 74 259 0.9 4.3 0.00 1.43 0.78 74 1009.0
20260507182156 74 271 0.9 3.5 0.00 1.43 0.78 76 1009.0
20260507181329 73 172 0.9 3.5 0.00 1.43 0.78 75 1009.1
20260507180831 72 211 0.9 2.6 0.00 1.43 0.78 78 1009.2
20260507180329 72 111 0.9 2.6 0.00 1.43 0.78 78 1009.4
20260507175832 71 82 0.9 7.0 0.00 1.44 0.78 80 1009.8
20260507175652 72 204 0.9 7.0 0.00 1.44 0.78 78 1009.8
20260507174830 72 186 0.9 3.5 0.00 1.45 0.78 83 1009.9
20260507174646 71 179 0.9 3.5 0.00 1.45 0.78 83 1009.8
20260507174150 71 221 1.7 3.5 0.00 1.45 0.78 85 1010.0
20260507173330 70 215 1.7 3.5 0.00 1.46 0.78 85 1010.1
20260507172833 70 252 1.7 3.5 0.00 1.47 0.78 87 1010.1
20260507172330 69 187 0.9 3.5 0.00 1.48 0.78 88 1009.6
20260507171829 68 327 0.0 1.7 0.00 1.51 0.78 90 1009.9
20260507171328 68 109 0.0 1.7 0.00 1.56 0.78 91 1009.9
20260507170834 68 115 0.9 3.5 0.00 1.59 0.78 91 1010.1
20260507170331 68 228 0.9 3.5 0.00 1.67 0.78 92 1010.3
20260507165829 68 190 0.9 4.3 0.00 1.71 0.78 92 1010.4
20260507165329 68 223 0.9 4.3 0.00 1.71 0.78 92 1010.2
20260507164830 68 234 0.9 3.5 0.00 1.72 0.78 93 1010.2
20260507164333 67 265 0.9 2.6 0.00 1.73 0.78 94 1010.1
20260507163829 67 344 0.9 2.6 0.00 1.73 0.78 94 1010.0
20260507163701 67 320 0.9 2.6 0.00 1.73 0.78 94 1010.2
20260507162829 67 175 0.9 6.1 0.00 1.73 0.78 94 1010.2
20260507162330 66 252 0.9 6.1 0.00 1.73 0.78 94 1010.3
20260507161830 66 202 0.9 4.3 0.00 1.73 0.78 94 1010.1
20260507161326 66 205 1.7 7.0 0.00 1.73 0.78 95 1010.7
20260507160824 66 201 1.7 7.0 0.00 1.73 0.78 94 1010.8
20260507160323 67 244 0.9 5.2 0.00 1.73 0.78 95 1010.4
20260507155823 67 260 0.9 6.1 0.00 1.73 0.78 95 1010.0
20260507155323 67 251 0.9 6.1 0.01 1.73 0.78 95 1009.9
20260507154825 67 239 0.9 3.5 0.01 1.73 0.78 95 1010.2
20260507154320 67 195 0.9 2.6 0.02 1.73 0.78 95 1009.9
20260507153822 67 80 0.0 2.6 0.02 1.73 0.78 95 1009.4
20260507153321 67 318 0.9 1.7 0.03 1.73 0.78 96 1009.4
20260507152822 66 32 0.9 1.7 0.03 1.73 0.78 96 1009.0
20260507152320 66 355 0.0 1.7 0.04 1.73 0.78 96 1009.2
20260507151820 66 314 0.0 0.9 0.04 1.73 0.78 96 1009.6
20260507151317 65 306 0.0 0.9 0.05 1.73 0.78 96 1009.9
20260507150816 65 161 0.0 1.7 0.05 1.73 0.78 96 1009.9
20260507150311 65 161 0.0 1.7 0.05 1.73 0.78 96 1010.0
20260507145812 65 313 0.0 2.6 0.05 1.68 0.78 96 1010.1
20260507145311 65 178 0.0 2.6 0.05 1.68 0.77 96 1010.5
20260507144811 65 250 0.0 1.7 0.06 1.68 0.77 96 1010.8
20260507144527 65 207 0.9 1.7 0.05 1.68 0.76 96 1011.2
20260507144440 65 207 0.0 1.7 0.05 1.68 0.76 96 1011.1
20260507143315 65 316 0.9 1.7 0.04 1.68 0.75 96 1011.2
20260507142811 65 301 0.9 1.7 0.04 1.68 0.75 96 1011.4
20260507142312 65 238 0.0 1.7 0.03 1.68 0.74 96 1011.2
20260507141814 65 251 0.0 1.7 0.03 1.68 0.74 96 1011.1
20260507141311 65 272 0.0 0.9 0.02 1.68 0.73 96 1010.9
20260507140812 65 272 0.0 1.7 0.02 1.68 0.73 96 1010.7
20260507140312 65 282 0.9 1.7 0.02 1.68 0.73 96 1010.6
20260507135812 65 145 0.0 0.9 0.02 1.66 0.73 96 1010.4
20260507135310 65 145 0.0 1.7 0.01 1.66 0.72 96 1010.5
20260507135133 65 145 0.0 1.7 0.00 1.66 0.71 96 1010.3
20260507134311 65 170 0.0 1.7 0.00 1.66 0.71 96 1010.4
20260507133810 65 170 0.0 1.7 0.01 1.66 0.71 96 1010.4
20260507133312 64 173 0.0 1.7 0.01 1.66 0.71 96 1010.1
20260507132810 64 173 0.9 1.7 0.02 1.66 0.71 96 1010.0
20260507132311 64 173 0.0 1.7 0.03 1.66 0.71 96 1010.4
20260507131811 64 240 0.0 0.9 0.05 1.66 0.71 96 1010.5
20260507131310 64 240 0.0 0.9 0.06 1.66 0.71 96 1010.7
20260507130812 64 240 0.0 1.7 0.10 1.66 0.71 96 1010.7
20260507130309 64 257 0.0 1.7 0.12 1.66 0.71 96 1010.7